Satellite-Ground Cal/Val Region Overpasses Predictions

Prediction of Satellite NPP Overpassing Cal/Val Region: PacN

Region Location: (Latitude: 15.00, Longitude: 179.40) to (Latitude: 23.50, Longitude: 200.60).

Table of predicted overpasses for the next 14.0 days since TLE Epoch: 7/21/2018
Interval Starting Time Starting Location Ending Time Ending Location
1 07/24/2018 01:13:00 ( 19.35, 179.99) 07/24/2018 01:13:41 ( 21.75, 179.40)
2 07/24/2018 13:42:00 ( 23.48, 179.63) 07/24/2018 13:42:15 ( 22.60, 179.40)
3 07/29/2018 01:18:10 ( 15.02, 179.43) 07/29/2018 01:18:12 ( 15.14, 179.40)


NCC Satellite Cal/Val Overpasses Prediction Service
